Regional Weather Roundup
Issued by NWS

Home | Current Version | Previous Version | Graphics & Text | Print | Product List | Glossary On
Versions: 1 2 3 4 5 6 7 8 9 10 11 12 13 14 15 16 17 18 19 20 21 22 23 24 25 26 27 28 29 30 31 32 33 34 35 36 37 38 39 40 41 42 43 44 45 46 47 48 49 50
000
ASUS45 KCYS 300610
RWRWY

WYOMING REGIONAL WEATHER ROUNDUP
NATIONAL WEATHER SERVICE CHEYENNE WY
1200 AM MDT SAT AUG 30 2014

NOTE:  "FAIR" INDICATES FEW OR NO CLOUDS BELOW 12,000 FEET
WITH NO SIGNIFICANT WEATHER AND/OR OBSTRUCTIONS TO VISIBILITY.

WYZ001-300700-
YELLOWSTONE NATIONAL PARK

CITY           SKY/WX    TMP DP  RH WIND       PRES   REMARKS
LK YELLOWSTONE   N/A     46  40  79 NW3       30.20S
6HR MIN TEMP:  46; 6HR MAX TEMP:  67;

W YELLOWSTONE  NOT AVBL

$$
WYZ002>013-054>058-071-098>099-300700-
NORTHERN WYOMING

CITY           SKY/WX    TMP DP  RH WIND       PRES   REMARKS
JACKSON        CLEAR     50  43  76 N3        30.10F
CODY           CLEAR     61  46  59 S8        29.97F
GREYBULL       CLEAR     66  45  46 SE3       29.91F
6HR MIN TEMP:  65; 6HR MAX TEMP:  83;

WORLAND        CLEAR     61  47  59 S6        29.93S
6HR MIN TEMP:  61; 6HR MAX TEMP:  83;

SHERIDAN       CLEAR     60  49  66 SE5       29.95F
6HR MIN TEMP:  57; 6HR MAX TEMP:  77;

BUFFALO        CLEAR     65  45  48 S15       30.03F
6HR MIN TEMP:  60; 6HR MAX TEMP:  74;

GILLETTE       PTCLDY    62  52  69 S16       30.01F
6HR MIN TEMP:  55; 6HR MAX TEMP:  75;

HULETT         FAIR      57  52  82 MISG      30.05
NEWCASTLE      FAIR      55  50  82 SE9       30.07

$$
WYZ014>020-022>026-101>103-300700-
CENTRAL WYOMING

CITY           SKY/WX    TMP DP  RH WIND       PRES   REMARKS
BIG PINEY      PTCLDY    50  41  71 CALM      30.18S
6HR MIN TEMP:  49; 6HR MAX TEMP:  76;

PINEDALE       CLEAR     46  41  81 CALM      30.19S
DUBOIS         FAIR      52  37  58 W10       30.15S
LANDER         CLEAR     65  39  38 W12       30.03F
6HR MIN TEMP:  65; 6HR MAX TEMP:  82;

RIVERTON       CLEAR     62  41  46 N9        30.03F
6HR MIN TEMP:  61; 6HR MAX TEMP:  80;

CASPER         PTCLDY    54  45  71 W6        30.06F
6HR MIN TEMP:  54; 6HR MAX TEMP:  79;

DOUGLAS        CLEAR     57  50  77 SE10      30.08F
6HR MIN TEMP:  55; 6HR MAX TEMP:  77; 6HR PCP:  0.04;


$$
WYZ021-027>030-104>119-300700-
SOUTHERN WYOMING

CITY           SKY/WX    TMP DP  RH WIND       PRES   REMARKS
EVANSTON       MOCLDY    58  41  53 S8        30.19F
6HR MIN TEMP:  57; 6HR MAX TEMP:  75;

KEMMERER       PTCLDY    57  41  54 CALM      30.20F
FORT BRIDGER   FAIR      55  43  65 S9        30.20F
ROCK SPRINGS   PTCLDY    62  36  37 SW12      30.16F
6HR MIN TEMP:  61; 6HR MAX TEMP:  77;

DIXON          FAIR      56  50  78 CALM      30.23S
RAWLINS        PTCLDY    62  41  46 W17       30.16F
6HR MIN TEMP:  58; 6HR MAX TEMP:  76;

SARATOGA       FAIR      61  41  48 SW14G22   30.20F
LARAMIE        MOCLDY    52  45  77 S10       30.21F
6HR MIN TEMP:  51; 6HR MAX TEMP:  66; 6HR PCP: TRACE;

CHEYENNE       PTCLDY    53  48  83 W5        30.17F
6HR MIN TEMP:  52; 6HR MAX TEMP:  71;

TORRINGTON     CLEAR     59  55  87 E10       30.05F
6HR MIN TEMP:  59; 6HR MAX TEMP:  79;

PINE BLUFFS    FAIR      52  48  87 CALM      30.15S

$$



USA.gov is the U.S. government's official web portal to all federal, state and local government web resources and services.